Location: Forli
(44.2227°N, 12.0407°E)
Time: 15:09:41
(UTC+01:00)

BlueWalker 3 - Pass Details

Date: 26 February 2026
Orbit: 451 x 457 km, 53.2° (Epoch: 14 March)

Event Time Altitude Azimuth Distance (km) Brightness Sun altitude
Exits shadow 05:06:13 27° 181° (S) 898 3.1 -20.1°
Maximum altitude 05:07:28 37° 137° (SE) 722 3.0 -19.9°
Drops below altitude 10° 05:10:49 10° 69° (ENE) 1,599 5.6 -19.3°
Sets 05:13:03 0° 61° (ENE) 2,474 6.7 -18.9°
